Location: Newark
(30.4994°N, 96.8283°W)
Time: 23:57:48
(UTC+00:00)

Envisat - Pass Details

Date: 22 November 2019
Orbit: 764 x 766 km, 98.1° (Epoch: 07 December)

Event Time Altitude Azimuth Distance (km) Brightness Sun altitude
Rises 23:41:53 0° 137° (SE) 3,219 6.0 -3.7°
Reaches altitude 10° 23:44:32 10° 124° (SE) 2,296 5.1 -4.2°
Maximum altitude 23:48:36 25° 70° (ENE) 1,510 4.0 -5.0°
Drops below altitude 10° 23:52:40 10° 17° (NNE) 2,304 5.1 -5.9°
Sets 23:55:20 0° 4° (N) 3,234 6.0 -6.4°
